Regional Weather Roundup
Issued by NWS

Home | Current Version | Previous Version | Graphics & Text | Print | Product List | Glossary On
Versions: 1 2 3 4 5 6 7 8 9 10 11 12 13 14 15 16 17 18 19 20 21 22 23 24 25 26 27
000
ASUS45 KBOI 281610
RWRID

IDAHO REGIONAL WEATHER ROUNDUP
NATIONAL WEATHER SERVICE BOISE ID
1000 AM MDT SUN AUG 28 2016

NOTE: "FAIR" INDICATES FEW OR NO CLOUDS BELOW 12000 FEET
WITH NO SIGNIFICANT WEATHER AND/OR OBSTRUCTIONS TO VISIBILITY

IDZ012-014-281700-
SOUTHWEST IDAHO


CITY           SKY/WX    TMP DP  RH WIND       PRES   REMARKS
BOISE          SUNNY     70  41  34 NW3       30.10R
CALDWELL       SUNNY     69  47  45 W3        30.09R
MOUNTAIN HOME  SUNNY     73  43  33 NW12      30.10R
$$

IDZ016-017-281700-
SOUTHCENTRAL IDAHO


CITY           SKY/WX    TMP DP  RH WIND       PRES   REMARKS
BURLEY         SUNNY     68  42  38 W12G18    30.14R
JEROME         SUNNY     65  42  43 S7        30.15R
TWIN FALLS     SUNNY     73  34  23 SW15G23   30.15R
$$

IDZ019>023-281700-
SOUTHEAST IDAHO


CITY           SKY/WX    TMP DP  RH WIND       PRES   REMARKS
IDAHO FALLS    SUNNY     66  36  32 CALM      30.17R
POCATELLO      SUNNY     71  32  23 W3        30.15S
REXBURG        SUNNY     59  38  45 E5        30.17S
$$

IDZ006-010-011-018-031-032-281700-
CENTRAL IDAHO MOUNTAINS


CITY           SKY/WX    TMP DP  RH WIND       PRES   REMARKS
MCCALL         MOSUNNY   59  41  51 S3        30.17R
HAILEY         SUNNY     63  34  34 NW9       30.19S
STANLEY          N/A     54  28  36 CALM      30.27S
SALMON         CLOUDY    55  39  54 CALM      30.11R
CHALLIS        MOSUNNY   61  37  41 NE3       30.16S
$$

IDZ002-004-006-007-026-281700-
NORTHERN IDAHO


CITY           SKY/WX    TMP DP  RH WIND       PRES   REMARKS
LEWISTON       MOSUNNY   73  49  42 NE7       30.03R
LOWELL           N/A     64  52  64 CALM      30.05F
COEUR D`ALENE  SUNNY     64  45  48 S14       30.03R
MULLAN PASS    MOSUNNY   52  38  58 SW8       30.16R
$$




USA.gov is the U.S. government's official web portal to all federal, state and local government web resources and services.